When you browse on this site, cookies collect data to enhance your experience and personalize the content and advertising you see.
Visit our Privacy Policy to learn more. By continuing to use the site, you agree to this use of cookies and data.
  • In Switzerland
  • List of Countries
  • For 7 days
  • Water Temperature
  • Weather Map
  • Weather Widgets
  • user-avatar
    Login

    Hourly Weather Vselyub

    Today, 24 February, Monday

    Time Temperature Precipitation Wind Pressure Humidity
    00:00 +1°C° 0 mm 2 mps 731 mmHg 91%
    01:00 +1°C° 0 mm 2 mps 731 mmHg 92%
    02:00 -1°C° 0 mm 2 mps 731 mmHg 94%
    03:00 0°C° 0 mm 3 mps 731 mmHg 94%
    04:00 0°C° 0 mm 3 mps 731 mmHg 95%
    05:00 0°C° 0 mm 3 mps 731 mmHg 95%
    06:00 -1°C° 0 mm 4 mps 732 mmHg 93%
    07:00 -1°C° 0 mm 5 mps 732 mmHg 91%
    08:00 -2°C° 0 mm 6 mps 733 mmHg 88%
    09:00 -1°C° 0.1 mm 6 mps 734 mmHg 84%
    10:00 +1°C° 0.1 mm 6 mps 734 mmHg 79%
    11:00 0°C° 0.1 mm 7 mps 735 mmHg 74%
    12:00 +2°C° 0 mm 7 mps 736 mmHg 67%
    13:00 +3°C° 0 mm 7 mps 736 mmHg 59%
    14:00 +2°C° 0 mm 8 mps 737 mmHg 52%
    15:00 +3°C° 0 mm 7 mps 737 mmHg 56%
    16:00 +2°C° 0 mm 5 mps 738 mmHg 59%
    17:00 +3°C° 0 mm 4 mps 738 mmHg 63%
    18:00 +1°C° 0 mm 4 mps 739 mmHg 66%
    19:00 +1°C° 0 mm 3 mps 739 mmHg 70%
    20:00 0°C° 0 mm 3 mps 740 mmHg 74%
    21:00 -1°C° 0 mm 3 mps 740 mmHg 75%
    22:00 -1°C° 0 mm 2 mps 740 mmHg 76%
    23:00 -1°C° 0 mm 2 mps 740 mmHg 77%

    Tomorrow, 25 February, Tuesday

    Time Temperature Precipitation Wind Pressure Humidity
    00:00 -1°C° 0 mm 2 mps 739 mmHg 78%
    01:00 -1°C° 0 mm 2 mps 739 mmHg 78%
    02:00 -1°C° 0 mm 2 mps 739 mmHg 78%
    03:00 -1°C° 0 mm 2 mps 738 mmHg 81%
    04:00 -1°C° 0 mm 3 mps 737 mmHg 85%
    05:00 -1°C° 0 mm 3 mps 737 mmHg 88%
    06:00 0°C° 0 mm 3 mps 736 mmHg 89%
    07:00 -1°C° 0 mm 4 mps 736 mmHg 90%
    08:00 -1°C° 0 mm 4 mps 735 mmHg 91%
    09:00 -1°C° 0 mm 5 mps 734 mmHg 92%
    10:00 -1°C° 0 mm 5 mps 733 mmHg 93%
    11:00 -2°C° 0 mm 6 mps 732 mmHg 93%
    12:00 -1°C° 0.4 mm 6 mps 732 mmHg 94%
    13:00 0°C° 0.4 mm 5 mps 731 mmHg 95%
    14:00 0°C° 0.4 mm 5 mps 730 mmHg 96%
    15:00 0°C° 0.1 mm 5 mps 730 mmHg 95%
    16:00 +1°C° 0.1 mm 5 mps 729 mmHg 94%
    17:00 +3°C° 0.1 mm 4 mps 728 mmHg 93%
    18:00 +3°C° 0.1 mm 4 mps 728 mmHg 91%
    19:00 +3°C° 0.1 mm 4 mps 728 mmHg 90%
    20:00 +3°C° 0.1 mm 4 mps 728 mmHg 88%
    21:00 +3°C° 0 mm 4 mps 728 mmHg 87%
    22:00 +3°C° 0 mm 3 mps 728 mmHg 86%
    23:00 +2°C° 0 mm 3 mps 728 mmHg 85%

    Day after tomorrow, 26 February, Wednesday

    Time Temperature Precipitation Wind Pressure Humidity
    00:00 +2°C° 0.3 mm 3 mps 728 mmHg 87%
    01:00 +3°C° 0.3 mm 2 mps 728 mmHg 89%
    02:00 +3°C° 0.3 mm 2 mps 728 mmHg 92%
    03:00 +1°C° 0 mm 3 mps 727 mmHg 91%
    04:00 +1°C° 0 mm 3 mps 727 mmHg 89%
    05:00 0°C° 0 mm 3 mps 727 mmHg 88%
    06:00 -1°C° 0 mm 4 mps 727 mmHg 86%
    07:00 -1°C° 0 mm 4 mps 727 mmHg 85%
    08:00 -1°C° 0 mm 4 mps 727 mmHg 83%
    09:00 0°C° 0 mm 4 mps 727 mmHg 77%
    10:00 +1°C° 0 mm 5 mps 727 mmHg 71%
    11:00 +2°C° 0 mm 5 mps 728 mmHg 65%
    12:00 +3°C° 0 mm 5 mps 728 mmHg 62%
    13:00 +3°C° 0 mm 5 mps 728 mmHg 60%
    14:00 +5°C° 0 mm 5 mps 728 mmHg 57%
    15:00 +3°C° 0 mm 5 mps 727 mmHg 60%
    16:00 +4°C° 0 mm 4 mps 727 mmHg 63%
    17:00 +3°C° 0 mm 4 mps 727 mmHg 66%
    18:00 +3°C° 0 mm 3 mps 727 mmHg 69%
    19:00 +2°C° 0 mm 3 mps 728 mmHg 73%
    20:00 +2°C° 0 mm 3 mps 728 mmHg 76%
    21:00 +1°C° 0 mm 3 mps 728 mmHg 78%
    22:00 +2°C° 0 mm 2 mps 728 mmHg 81%
    23:00 +2°C° 0 mm 2 mps 728 mmHg 83%

    27 February, Thursday

    Time Temperature Precipitation Wind Pressure Humidity
    00:00 +1°C° 0 mm 2 mps 728 mmHg 85%
    01:00 +1°C° 0 mm 2 mps 728 mmHg 87%
    02:00 +2°C° 0 mm 1 mps 728 mmHg 89%
    03:00 +2°C° 0 mm 1 mps 728 mmHg 90%
    04:00 +1°C° 0 mm 1 mps 728 mmHg 90%
    05:00 +1°C° 0 mm 1 mps 728 mmHg 91%
    06:00 -1°C° 0.6 mm 2 mps 728 mmHg 93%
    07:00 -1°C° 0.6 mm 2 mps 728 mmHg 95%
    08:00 -1°C° 0.6 mm 2 mps 729 mmHg 96%
    09:00 -1°C° 0.4 mm 3 mps 729 mmHg 93%
    10:00 -2°C° 0.4 mm 4 mps 730 mmHg 90%
    11:00 -2°C° 0.4 mm 5 mps 730 mmHg 86%
    12:00 -2°C° 0.1 mm 5 mps 731 mmHg 81%
    13:00 -2°C° 0.1 mm 5 mps 731 mmHg 76%
    14:00 -2°C° 0.1 mm 5 mps 732 mmHg 71%
    15:00 -2°C° 0 mm 5 mps 732 mmHg 70%
    16:00 -2°C° 0 mm 4 mps 733 mmHg 69%
    17:00 -2°C° 0 mm 4 mps 733 mmHg 68%
    18:00 -3°C° 0 mm 4 mps 733 mmHg 70%
    19:00 -4°C° 0 mm 3 mps 734 mmHg 73%
    20:00 -5°C° 0 mm 3 mps 734 mmHg 76%
    21:00 -4°C° 0 mm 2 mps 734 mmHg 78%
    22:00 -4°C° 0 mm 2 mps 734 mmHg 80%
    23:00 -5°C° 0 mm 2 mps 734 mmHg 81%

    28 February, Friday

    Time Temperature Precipitation Wind Pressure Humidity
    00:00 -5°C° 0 mm 2 mps 734 mmHg 81%
    01:00 -5°C° 0 mm 2 mps 734 mmHg 82%
    02:00 -6°C° 0 mm 3 mps 734 mmHg 82%
    03:00 -6°C° 0 mm 3 mps 734 mmHg 82%
    04:00 -6°C° 0 mm 3 mps 734 mmHg 81%
    05:00 -6°C° 0 mm 3 mps 735 mmHg 81%
    06:00 -6°C° 0 mm 3 mps 735 mmHg 80%
    07:00 -6°C° 0 mm 3 mps 735 mmHg 79%
    08:00 -6°C° 0 mm 3 mps 735 mmHg 78%
    09:00 -7°C° 0 mm 4 mps 735 mmHg 74%
    10:00 -5°C° 0 mm 4 mps 735 mmHg 70%
    11:00 -5°C° 0 mm 4 mps 735 mmHg 65%
    12:00 -4°C° 0 mm 4 mps 735 mmHg 59%
    13:00 -4°C° 0 mm 4 mps 736 mmHg 52%
    14:00 -3°C° 0 mm 4 mps 736 mmHg 45%
    15:00 -4°C° 0 mm 4 mps 736 mmHg 45%
    16:00 -4°C° 0 mm 4 mps 736 mmHg 45%
    17:00 -4°C° 0 mm 4 mps 737 mmHg 45%
    18:00 -5°C° 0 mm 4 mps 737 mmHg 47%
    19:00 -5°C° 0 mm 4 mps 738 mmHg 50%
    20:00 -7°C° 0 mm 4 mps 738 mmHg 53%
    21:00 -7°C° 0 mm 4 mps 738 mmHg 56%
    22:00 -7°C° 0 mm 4 mps 739 mmHg 59%
    23:00 -7°C° 0 mm 4 mps 739 mmHg 62%

    29 February, Saturday

    Time Temperature Precipitation Wind Pressure Humidity
    00:00 -7°C° 0 mm 4 mps 739 mmHg 66%
    01:00 -7°C° 0 mm 5 mps 739 mmHg 69%
    02:00 -7°C° 0 mm 5 mps 740 mmHg 72%
    03:00 -7°C° 0 mm 5 mps 740 mmHg 74%
    04:00 -8°C° 0 mm 5 mps 740 mmHg 76%
    05:00 -8°C° 0 mm 4 mps 740 mmHg 77%
    06:00 -8°C° 0 mm 4 mps 740 mmHg 78%
    07:00 -8°C° 0 mm 5 mps 741 mmHg 79%
    08:00 -7°C° 0 mm 5 mps 741 mmHg 80%
    09:00 -7°C° 0 mm 5 mps 741 mmHg 70%
    10:00 -6°C° 0 mm 5 mps 741 mmHg 59%
    11:00 -5°C° 0 mm 5 mps 741 mmHg 49%
    12:00 -4°C° 0 mm 5 mps 741 mmHg 46%
    13:00 -3°C° 0 mm 4 mps 741 mmHg 44%
    14:00 -2°C° 0 mm 4 mps 741 mmHg 41%
    15:00 -1°C° 0 mm 3 mps 741 mmHg 45%
    16:00 -2°C° 0 mm 3 mps 741 mmHg 48%
    17:00 -2°C° 0 mm 2 mps 741 mmHg 52%
    18:00 -3°C° 0 mm 2 mps 741 mmHg 56%
    19:00 -1°C° 0 mm 1 mps 741 mmHg 60%
    20:00 -2°C° 0 mm 1 mps 741 mmHg 64%
    21:00 -2°C° 0 mm 1 mps 741 mmHg 65%
    22:00 -2°C° 0 mm 1 mps 741 mmHg 66%
    23:00 -2°C° 0 mm 1 mps 741 mmHg 66%
    Show more